STARLINK-2729 (48430 NORAD) Tracking and Keplerian Element Data

This shows tracking and keplerian element data for the satellite.

Feedback or suggestion? Click here.




ElementValue
Catalog48430
NameSTARLINK-2729
Epoch Orbit1421
Epoch Day211.25001157
Epoch Year2021
RAAN175.5607
Inclination53.0477
Eccentricity0.0002305
Argument of Perigee25.7409
Mean Anonmoly179.1017
Mean Motion15.73186107
Decay Rate0.00047726
L11 48430U 21040C 21211.25001157 .00047726 00000-0 34266-3 0 9994
L22 48430 53.0477 175.5607 0002305 25.7409 179.1017 15.73186107 14218

Live tracking and technical data element details for STARLINK-2729 (NORAD 48430). STARLINK-2729 can be tracked NOW for your location showing map with azimuth and elevation plus other details from your city location.

Track the satellite on the map from your city or location and see movement details for azimuth, elevation, latitude, longitude, range, height, and movement on the map or in text.







IsCatalogInMostPopularTable: catalog: 48430, numindb: 23
Update: records affected: 1



GetName: 48430 STARLINK-2729

Hit Count: updated at: Sat, 31 Jul 2021 14:23:32 GMT